Location: Unspecified
(0.0000°N, 0.0000°E)
Time: 17:22:29
(UTC+00:00)

Vanguard 3 - Pass Details

Date: 04 February 2023
Orbit: 509 x 3249 km, 33.3° (Epoch: 20 March)

Event Time Altitude Azimuth Distance (km) Brightness Sun altitude
Rises 01:57:16 0° 309° (NW) 6,936 - -59.7°
Reaches altitude 10° 02:01:42 10° 310° (NW) 6,068 - -58.8°
Maximum altitude 02:21:55 81° 37° (NE) 3,092 - -54.5°
Exits shadow 02:25:09 68° 104° (ESE) 3,106 9.8 -53.7°
Drops below altitude 10° 02:37:39 10° 122° (ESE) 4,911 11.6 -51.0°
Sets 02:40:48 0° 123° (ESE) 5,619 12.1 -50.3°
